SCP
0 0 0 0 0 -0 -0 -0 -0 -0 -0 0 0 0 0 0 0 0 0 0 0 0 0 0 0 0 0 0 0 0 0 0 0 0 0 0 0 0 0 0 0 0 0 0
0 0 0 0 0 0 -0 -0 -0 -0 0 0 0 0 0 0 0 0 0 0 0 0 0 0 0 0 0 0 0 0 0 0 0 0 0 0 0 0 0 0 0 0 0 0
0 0 0 0 0 0 0 0 0 0 0 0 0 0 0 0 0 0 0 0 0 0 0 0 0 0 0 0 0 0 0 0 0 0 0 0 0 0 0 0 0 0 0 0
0 0 0 0 0 0 0 0 0 0 0 0 0 0 0 0 0 0 0 0 0 0 0 0 0 0 0 0 0 0 0 0 0 0 0 0 0 0 0 0 0 0 0 0
0 0 0 0 0 0 0 0 0 0 0 0 0 0 0 0 0 0 0 0 0 0 0 0 0 0 0 0 0 0 0 0 0 0 0 0 0 0 0 0 0 0 0 0
0 0 0 0 0 0 0 0 0 0 0 0 0 0 0 0 0 0 0 0 0 0 0 0 0 0 0 0 0 0 0 0 0 0 0 0 0 0 0 0 0 0 0 0
0 0 0 0 0 0 0 0 0 0 0 0 0 0 0 0 0 0 0 0 0 0 0 0 0 0 0 0 0 0 0 0 0 0 0 0 0 0 0 0 0 0 0 0
0 0 0 0 0 0 0 0 0 0 0 0 0 0 0 0 0 0 0 0 0 0 0 0 0 0 0 0 0 0 0 0 0 0 0 0 0 0 0 0 0 0 0 0
-0 -0 -0 0 0 0 0 0 0 0 0 0 0 0 0 0 0 0 0 0 0 0 0 0 0 0 0 0 0 0 0 0 0 0 0 0 0 0 0 0 0 0 0 0
0 0 0 0 0 0 0 0 0 0 0 0 0 0 0 0 0 0 0 0 0 0 0 0 0 0 0 0 0 0 0 0 0 0 0 0 0 0 0 0 0 0 0 0
0 0 0 0 0 0 0 0 0 0 0 0 0 0 0 0 0 0 0 0 0 0 0 0 0 0 0 0 0 0 0 0 0 0 0 0 0 0 0 0 0 0 0 0
0 0 0 0 0 0 0 0 0 0 0 0 0 0 0 0 0 0 0 0 0 0 0 0 0 0 0 0 0 0 0 0 0 0 0 0 0 0 0 0 0 0 0 0
0 0 0 0 0 0 0 0 0 0 0 0 0 0 0 0 0 0 0 0 0 0 0 0 0 0 0 0 0 0 0 0 0 0 0 0 0 0 0 0 0 0 0 0
0 0 0 0 0 0 0 0 0 0 0 0 0 0 0 0 0 0 0 0 0 0 0 0 0 0 0 0 0 0 0 0 0 0 0 0 0 0 0 0 0 0 0 0
0 0 0 0 0 0 0 0 0 0 0 0 0 0 0 0 0 0 0 0 0 0 0 0 0 0 0 0 0 0 0 0 0 0 0 0 0 0 0 0 0 0 0 0
0 0 0 0 0 0 0 0 0 0 0 0 0 0 0 0 0 0 0 0 0 0 0 0 0 0 0 0 0 0 0 0 0 0 0 0 0 0 0 0 0 0 0 0
0 0 0 0 0 0 0 0 0 0 0 0 0 0 0 0 0 0 0 0 0 0 0 0 0 0 0 0 0 0 0 0 0 0 0 0 0 0 0 0 0 0 0 0
0 0 0 0 0 0 0 0 0 0 0 0 0 0 0 0 0 0 0 0 0 0 0 0 0 0 0 0 0 0 0 0 0 0 0 0 0 0 0 0 0 0 0 0
0 0 0 0 0 0 0 0 0 0 0 0 0 0 0 0 0 0 0 0 0 0 0 0 0 0 0 0 0 0 0 0 0 0 0 0 0 0 0 0 0 0 0 0
0 0 0 0 0 0 0 0 0 0 0 0 0 0 0 0 0 0 0 0 0 0 0 0 0 0 0 0 0 0 0 0 0 0 0 0 0 0 0 0 0 0 0 0
0 0 0 0 0 0 0 0 0 0 0 0 0 0 0 0 0 0 0 0 0 0 0 0 0 0 0 0 0 0 0 0 0 0 0 0 0 0 0 0 0 0 0 0
0 0 0 0 0 0 0 0 0 0 0 0 0 0 0 0 0 0 0 0 0 0 0 0 0 0 0 0 0 0 0 0 0 0 0 0 0 0 0 0 0 0 0 0
0 0 0 0 0 0 0 0 0 0 0 0 0 0 0 0 0 0 0 0 0 0 0 0 0 0 0 0 0 0 0 0 0 0 0 0 0 0 0 0 0 0 0 0
0 0 0 0 0 0 0 0 0 0 0 0 0 0 0 0 0 0 0 0 0 0 0 0 0 0 0 0 0 0 0 0 0 0 0 0 0 0 0 0 0 0 -0 -0
0 0 0 0 0 0 0 0 0 0 0 0 0 0 0 0 0 0 0 0 0 0 0 0 0 0 0 0 0 0 0 0 0 0 0 0 0 0 0 0 0 0 -0 -0
0 0 0 0 0 0 0 0 0 0 0 0 0 0 0 0 0 0 0 0 0 0 0 0 0 0 0 0 0 0 0 0 0 0 0 0 0 0 0 0 0 -0 -0 0
0 0 0 0 0 0 0 0 0 0 0 0 0 0 0 0 0 0 0 0 0 0 0 0 0 0 0 0 0 0 0 0 0 0 0 0 0 0 0 0 -0 -0 0 0
Wind_Speed
18 18 13 14 20 22 19 12 9 10 12 13 8 10 12 13 14 14 15 15 15 14 12 12 11 10 10 9 8 9 9 7 6 5 4 4 3 2 2 3 4 4 5 6
12 11 13 14 17 20 20 16 12 9 10 7 1 5 8 12 15 16 16 15 15 13 13 13 12 12 11 9 8 9 8 7 5 5 4 3 2 2 3 4 4 5 5 6
5 3 9 9 15 17 14 11 12 11 9 3 4 6 9 12 15 17 16 14 15 14 14 13 13 13 13 10 9 8 7 6 5 5 4 3 2 3 4 4 4 5 5 6
4 2 1 2 8 13 12 11 11 8 5 4 7 6 6 2 8 10 12 13 13 12 11 10 10 11 10 10 9 8 7 6 5 4 3 2 2 3 3 3 4 4 5 6
2 3 4 2 3 6 7 5 6 8 5 6 7 6 7 8 2 6 8 11 11 11 12 12 12 12 12 9 8 7 6 5 4 4 3 2 2 3 3 3 4 4 5 6
2 2 2 2 1 1 3 2 2 8 11 9 6 5 1 3 7 12 12 12 12 13 13 12 11 11 12 9 8 7 6 5 4 4 3 1 2 2 2 3 4 5 6 6
1 2 6 6 2 2 4 5 1 5 8 8 4 6 8 7 9 12 13 13 13 13 12 10 10 11 11 8 7 6 6 5 4 3 2 2 2 2 4 4 5 5 6 6
4 3 7 3 2 3 4 1 3 4 6 10 13 14 11 10 12 13 13 12 12 13 10 8 9 11 10 7 6 6 5 4 3 3 3 3 3 4 4 4 5 5 5 6
7 7 3 2 1 1 3 4 3 5 11 18 16 12 11 9 10 10 11 10 10 12 11 7 7 9 9 6 6 6 5 4 3 3 3 3 3 4 4 4 4 4 4 5
3 5 2 1 2 3 3 4 6 10 13 15 16 13 12 11 10 9 10 10 10 11 10 7 6 7 7 6 6 6 5 4 3 3 3 3 3 3 3 4 4 5 5 6
4 2 1 1 1 4 6 11 12 9 9 13 17 14 11 10 9 9 8 7 8 9 9 7 7 7 6 6 6 6 5 3 2 2 2 3 3 3 4 3 6 8 5 5
7 8 7 6 6 8 11 11 13 14 10 8 11 12 11 9 7 8 8 8 8 8 8 7 7 7 5 5 6 5 3 1 1 2 2 2 3 4 8 10 14 16 15 14
4 4 4 7 7 6 9 10 11 11 12 11 8 10 10 7 6 7 8 9 9 8 8 7 7 6 5 5 5 4 2 0 1 2 2 3 3 4 6 8 12 15 17 19
6 8 7 5 6 9 13 13 13 12 11 11 10 10 10 8 8 8 8 7 8 8 7 7 7 6 4 5 4 3 1 1 2 2 2 3 3 4 4 6 7 6 10 16
3 4 9 12 13 13 13 15 15 12 11 10 9 10 10 10 8 7 6 7 9 8 7 7 7 5 4 4 4 2 1 2 2 2 2 3 3 4 5 6 6 7 6 9
9 11 14 16 16 14 14 15 15 12 10 9 9 9 8 8 8 7 7 8 8 7 6 6 6 4 4 4 3 2 2 6 5 3 3 3 4 4 4 5 6 7 8 8
13 11 12 15 14 14 13 12 13 13 11 11 10 9 10 10 9 7 6 6 7 6 6 6 5 4 3 3 3 2 2 4 7 4 3 4 4 4 4 5 6 7 7 11
8 11 15 19 19 16 13 11 12 12 11 10 11 10 9 9 8 7 6 7 7 7 5 5 5 4 3 3 2 2 2 2 3 3 3 4 4 4 5 6 7 8 8 10
11 13 13 13 13 15 14 12 11 11 11 11 11 9 8 7 7 7 7 7 7 6 3 3 6 4 3 3 3 2 2 3 3 3 3 7 6 5 5 6 7 8 9 9
13 15 16 15 13 15 14 12 12 11 9 9 10 9 8 7 7 7 7 5 3 3 4 4 4 3 2 2 4 2 3 3 3 3 3 4 4 5 5 7 8 9 9 9
17 18 18 17 14 12 12 12 12 11 9 9 10 10 9 8 7 7 7 5 3 3 4 5 3 1 1 2 4 2 3 3 3 3 4 4 5 5 6 7 8 9 9 9
16 18 18 17 16 13 9 8 10 11 10 9 9 10 10 9 7 7 6 4 3 5 4 2 1 2 3 4 2 2 3 3 3 3 4 4 5 6 6 7 7 8 8 8
15 16 17 16 16 13 11 9 9 9 10 9 9 9 8 7 5 5 4 2 2 5 4 2 3 5 7 4 2 3 3 4 4 4 4 4 5 5 6 7 7 7 7 8
16 16 15 14 14 15 12 9 8 8 9 9 8 8 8 7 5 4 3 5 6 6 3 4 6 7 7 3 3 3 3 4 4 5 5 4 5 5 6 7 7 7 7 8
15 15 15 15 13 11 11 11 11 10 10 8 8 7 5 4 5 4 4 4 5 5 2 5 8 8 4 3 3 4 4 4 5 5 4 5 6 6 6 6 7 7 7 8
13 11 9 8 9 10 9 8 8 7 8 8 6 5 5 5 6 4 3 4 4 4 3 2 3 5 3 4 4 4 4 6 7 6 6 6 6 7 7 7 8 8 7 8
12 10 9 9 7 7 7 7 8 8 7 8 7 4 4 4 4 3 3 2 2 2 2 3 3 3 4 4 4 4 4 5 5 6 6 6 6 6 7 8 7 7 8 8
Wind_Direction
253 254 234 205 197 196 203 208 216 244 252 249 209 176 167 158 154 155 162 163 162 159 153 149 143 137 134 129 127 128 125 126 134 137 132 123 110 75 21 358 351 346 342 333
267 237 207 194 192 196 203 208 218 242 264 262 150 109 136 154 160 167 170 168 163 158 154 152 146 141 136 132 131 131 130 133 134 131 126 121 103 47 17 2 354 352 341 327
311 147 156 179 190 192 196 199 201 216 232 198 132 138 157 166 171 175 172 164 162 160 157 151 147 145 142 139 133 129 129 131 133 133 129 114 71 39 13 355 347 336 324 319
319 33 81 202 179 186 191 199 195 203 215 165 129 99 54 32 176 167 158 154 150 146 140 135 131 133 128 130 130 129 130 134 138 135 125 97 58 22 349 334 330 314 309 310
342 347 326 355 117 165 174 195 197 182 154 123 131 84 29 1 94 131 129 132 132 131 129 127 130 132 127 126 127 128 134 139 139 134 122 85 24 348 328 319 314 303 302 307
356 0 310 296 342 248 133 202 197 166 161 162 138 120 192 14 84 98 102 110 115 116 118 122 127 129 127 130 129 134 138 137 134 128 115 59 352 328 315 308 298 303 306 308
197 294 276 266 302 78 141 223 230 166 162 150 128 132 125 99 89 97 102 106 111 114 117 124 126 124 125 126 132 134 128 125 122 109 76 30 357 326 313 309 309 310 308 308
169 220 261 285 97 151 203 59 63 100 108 108 108 107 108 105 103 103 102 103 109 110 109 112 120 122 122 128 132 125 122 118 103 71 32 22 358 326 317 316 316 315 313 314
193 214 258 323 136 110 128 108 100 104 122 125 119 117 112 106 104 102 105 104 105 111 108 103 110 122 126 137 132 122 112 99 75 48 26 11 344 324 320 322 320 315 315 317
244 264 267 1 46 58 80 103 110 124 128 127 123 124 120 116 111 106 106 107 110 110 112 109 110 113 125 132 123 113 103 85 64 40 6 347 332 318 320 322 320 318 324 324
240 261 106 249 161 112 94 104 106 102 110 125 123 123 123 121 117 117 115 111 113 118 121 122 119 115 115 114 108 103 95 78 48 8 332 320 321 323 333 314 325 333 322 312
211 203 185 198 159 134 126 126 127 118 103 104 121 123 123 120 117 119 120 119 118 118 123 126 122 117 110 106 107 108 100 76 338 305 303 314 326 331 345 342 336 337 336 333
188 137 115 119 117 115 120 122 122 119 122 116 106 116 116 111 110 112 118 128 132 135 133 130 123 119 117 110 107 110 125 231 289 310 320 330 333 328 324 328 331 334 334 332
124 112 110 122 122 116 114 111 103 96 97 104 107 107 107 106 110 115 125 133 129 125 124 125 124 124 122 116 116 123 131 343 348 329 327 322 316 309 307 314 320 317 324 327
68 112 130 121 114 115 115 115 109 106 104 99 102 109 113 117 117 115 114 114 113 112 118 122 124 126 126 127 127 115 57 350 344 336 326 314 306 302 303 310 315 316 314 320
91 95 114 122 126 127 125 125 124 124 121 116 113 110 108 108 106 104 109 118 121 126 129 127 129 137 136 127 112 81 28 2 3 350 332 319 310 307 312 316 318 317 318 324
126 133 136 137 139 137 135 134 135 135 131 128 125 120 113 109 104 104 105 108 112 117 122 125 128 130 121 112 96 65 19 352 354 345 318 307 303 307 315 318 315 316 316 322
150 153 155 151 146 138 128 125 129 132 131 129 126 123 124 128 129 126 118 107 97 89 91 112 122 115 100 96 86 39 1 337 325 316 310 307 317 323 320 316 315 317 320 322
118 123 123 124 129 129 128 128 128 125 125 128 130 131 130 127 125 122 116 111 113 112 113 121 115 97 74 37 53 24 347 331 322 316 312 328 335 320 319 320 320 320 319 322
117 120 119 117 120 125 126 126 125 123 124 126 124 121 117 118 117 113 103 91 92 126 132 110 94 88 63 355 16 9 339 325 318 316 316 317 317 317 318 322 322 319 319 320
126 124 122 120 115 113 120 126 128 126 123 122 125 124 120 114 112 111 107 97 70 91 95 96 94 93 294 349 22 360 336 328 325 323 321 319 318 314 311 311 314 317 318 319
129 127 123 121 117 111 104 108 116 119 116 111 109 112 113 111 106 94 86 107 110 100 84 68 44 319 356 41 22 352 345 338 331 323 317 313 311 309 308 308 309 313 315 315
126 124 122 121 119 113 100 95 102 110 113 116 118 119 116 113 111 115 109 99 85 86 74 18 350 3 33 43 4 354 346 337 327 318 309 300 295 294 298 303 306 309 310 312
119 116 114 113 113 110 105 97 95 97 99 98 98 105 111 105 80 62 91 107 102 86 48 13 15 21 29 13 351 342 333 322 310 298 294 294 293 293 296 301 305 308 309 310
116 116 118 120 117 117 118 114 105 100 97 92 84 76 74 88 105 99 78 67 82 84 44 13 15 15 14 342 336 326 317 308 305 307 308 305 300 301 303 305 306 308 308 305
120 117 113 111 119 127 129 126 120 117 114 107 94 82 80 79 85 85 78 64 57 60 43 1 348 356 342 328 320 316 313 316 320 313 301 301 301 303 305 305 305 304 302 300
105 107 108 107 109 117 122 124 124 123 122 119 111 95 89 87 86 85 81 62 38 17 356 342 338 334 326 321 320 320 316 308 303 302 300 298 297 298 299 299 299 299 298 296